FENGYUN 1C DEB, 30804

Orbit data source: Space-Track

FENGYUN 1C DEB, 30804 is space debris in SSO originally from a launch on Mon, 10 May 1999 UTC launched from the Taiyaun Space Center, China (TSC). Fengyun 1C debris stems from the Chinese weather satellite Fengyun-1C, which was intentionally destroyed by a Chinese anti-satellite missile in 2007. This event dramatically increased the amount of space debris, with thousands of trackable fragments posing hazards to satellites and human spaceflight. The Fengyun 1C debris cloud has become a focal point in discussions about space sustainability and the need for international regulations to prevent the creation of new debris.

Loading next visibility...
Identifier
30804, 1999-025AUN
Orbit
SSO
Country
Flag of CNCN / PRC
Related business
Manufacturer
Unknown
Mission
Spacecraft
Bus & Motor
Unknown
Mass
Unknown
Launch date (UTC)
1999-05-10 (27 years ago)
Launch vehicle
Unknown
Launch site
Taiyaun Space Center, China (TSC)
Object type
Payload
Rocket body
Debris
Shape & HBR
Unknown shape, 0.1 m
Radar Cross Section
Small (<0.1 m²)

Expand to show TLE details & history
Last TLE update: 19 hours ago

TLE from 19 hours ago
0 FENGYUN 1C DEB
1 30804U 99025AUN 26106.15903895  .00001123  00000-0  21817-3 0  9994
2 30804  98.8756 184.4475 0184477 172.8897 218.6334 14.55160914 12811
Epoch: 2026-04-16T03:49Z
TLE epoch observation values (Epoch: 2026-04-16T03:49:00.965Z)
Latitude
29.87888°
Longitude
-82.2373°
Altitude
815.672 km
Speed
7.394 km/s
True Right ascension
11h 57m 18s
True Declination
29° 43' 54"
Sunlit
Object was in full shadow at epoch
Visualization orbit readout
Latitude
Unknown
Longitude
Unknown
Altitude
Unknown
Speed
Unknown
Apparent Right ascension
Unknown
Apparent Declination
Unknown
Sunlit
N/A
Visualization observer readout
Local Sidereal Time
05:07:15
Azimuth
Unknown
Elevation
Unknown
Doppler factor
Unknown
Orbital elements
Apogee altitude
836.646 km
Perigee altitude
575.275 km
Semi-major axis
7,084.098 km
Eccentricity
0.01845
Inclination
98.8756°
RAAN
184.4475°
Arg. of periapsis
172.8897°
True anomaly
217.33707°
Mean anomaly
218.6334°
Eccentric anomaly
217.98291°
Mean motion
3.64013 °/min
Orbital period
98.9 mins
BSTAR
0.00021817
Loading maneuver chart data...
Computing Atmospheric mass density...
Loading historical data...
Loading historical data...
Loading historical data...
Loading historical data...
Loading historical data...
Loading historical data...
Loading historical data...

Documentation

Showing up to 5 results
|